TimeCST,TemperatureF,Dew PointF,Humidity,Sea Level PressureIn,VisibilityMPH,Wind Direction,Wind SpeedMPH,Gust SpeedMPH,PrecipitationIn,Events,Conditions,WindDirDegrees,DateUTC
12:53 AM,8.1,-0.9,67,30.40,10.0,South,4.6,-,N/A,,Overcast,180,2013-02-01 06:53:00
1:53 AM,10.0,-0.9,61,30.38,10.0,South,4.6,-,N/A,,Overcast,170,2013-02-01 07:53:00
2:53 AM,10.0,-0.0,64,30.37,10.0,South,8.1,-,N/A,,Overcast,190,2013-02-01 08:53:00
3:53 AM,7.0,-0.9,70,30.35,10.0,South,5.8,-,N/A,,Scattered Clouds,170,2013-02-01 09:53:00
4:53 AM,7.0,-0.9,70,30.32,10.0,ESE,4.6,-,N/A,,Clear,120,2013-02-01 10:53:00
5:53 AM,5.0,-0.9,76,30.31,10.0,ESE,4.6,-,N/A,,Clear,120,2013-02-01 11:53:00
6:53 AM,6.1,-0.9,73,30.28,10.0,SE,4.6,-,N/A,,Partly Cloudy,140,2013-02-01 12:53:00
7:53 AM,8.1,1.0,73,30.26,10.0,SE,4.6,-,N/A,,Overcast,140,2013-02-01 13:53:00
8:53 AM,10.0,3.9,76,30.24,10.0,Calm,Calm,-,N/A,,Clear,0,2013-02-01 14:53:00
9:53 AM,18.0,10.9,74,30.21,10.0,SSW,6.9,-,N/A,,Clear,200,2013-02-01 15:53:00
10:53 AM,26.1,16.0,66,30.17,10.0,South,6.9,-,N/A,,Overcast,190,2013-02-01 16:53:00
11:53 AM,34.0,19.9,56,30.12,10.0,SSW,6.9,-,N/A,,Overcast,200,2013-02-01 17:53:00
12:53 PM,43.0,24.1,47,30.05,10.0,SW,5.8,-,N/A,,Overcast,220,2013-02-01 18:53:00
1:53 PM,46.9,25.0,42,30.02,10.0,WSW,13.8,-,N/A,,Overcast,240,2013-02-01 19:53:00
2:53 PM,48.0,25.0,41,30.00,10.0,SW,11.5,-,N/A,,Mostly Cloudy,230,2013-02-01 20:53:00
3:53 PM,48.0,25.0,41,30.00,10.0,West,11.5,-,N/A,,Mostly Cloudy,260,2013-02-01 21:53:00
4:53 PM,46.9,25.0,42,30.00,10.0,WSW,5.8,-,N/A,,Partly Cloudy,250,2013-02-01 22:53:00
5:53 PM,44.1,28.9,55,30.03,10.0,NW,10.4,-,N/A,,Mostly Cloudy,310,2013-02-01 23:53:00
6:53 PM,41.0,30.0,65,30.07,10.0,NW,9.2,-,N/A,,Overcast,310,2013-02-02 00:53:00
7:53 PM,39.0,34.0,82,30.09,10.0,NNW,11.5,-,0.00,,Mostly Cloudy,330,2013-02-02 01:53:00
8:53 PM,39.0,33.1,79,30.11,10.0,NW,9.2,-,N/A,,Overcast,310,2013-02-02 02:53:00
9:53 PM,37.0,30.9,79,30.13,10.0,NW,16.1,-,N/A,,Mostly Cloudy,320,2013-02-02 03:53:00
10:53 PM,33.1,28.0,82,30.13,10.0,NW,9.2,-,N/A,,Clear,310,2013-02-02 04:53:00
11:53 PM,30.0,26.1,85,30.13,10.0,WNW,5.8,-,N/A,,Partly Cloudy,290,2013-02-02 05:53:00